FW2480 Trujillo Alto PR US current weather conditions

sailwx.info

Wind from 119 at 5 knots gusting 14

Air temperature 32.8° C
Dewpoint 20.3° C

Last reported at 2020-Aug-03 17:45 UTC.
Time now 2020-Aug-03 18:17 UTC

Location: N 18°21' W 065°60'.
View on Google Maps.

See reports from other nearby stations

  
Tides and Currents Weather Stations Pressure Air Temp Water Temp Dewpoint Dewpoint Depression Visibility Wind Speed Wind Dir Waves Ship Positions
date/time (UTC)wind fromknots sea level pressurealtimeterstation pressurevisibilityair tempwater tempwave heightnotes
2020-Aug-03 17:45 119 5 gusting 14 32.8
2020-Aug-03 17:30 153 6 gusting 13 32.8
2020-Aug-03 17:15 119 6 gusting 15 32.2
2020-Aug-03 16:45 153 6 gusting 14 32.2
2020-Aug-03 16:30 169 4 gusting 8 32.2
2020-Aug-03 16:15 184 5 gusting 10 31.7
2020-Aug-03 15:16 126 6 gusting 13 32.2
2020-Aug-03 15:01 160 4 gusting 12 32.2
2020-Aug-03 14:46 146 4 gusting 10 31.7
2020-Aug-03 14:31 147 5 gusting 14 31.1
2020-Aug-03 14:16 169 5 gusting 9 31.7
2020-Aug-03 14:02 139 2 gusting 6 31.7
2020-Aug-03 13:46 144 2 gusting 10 31.1
2020-Aug-03 13:31 136 4 gusting 9 31.1
2020-Aug-03 13:16 152 3 gusting 8 30.6
2020-Aug-03 13:00 182 1 gusting 7 30.0
2020-Aug-03 12:45 168 3 gusting 7 29.4
2020-Aug-03 12:31 135 3 gusting 7 29.4
2020-Aug-03 12:15 145 5 gusting 12 28.9
2020-Aug-03 12:00 152 2 gusting 6 28.3
2020-Aug-03 11:46 128 27.8
2020-Aug-03 11:31 129 0 gusting 3 27.2
2020-Aug-03 11:15 176 0 gusting 2 26.1
2020-Aug-03 11:00 186 25.6
2020-Aug-03 10:45 186 25.0
2020-Aug-03 10:30 186 25.0
2020-Aug-03 10:15 186 25.6
2020-Aug-03 10:00 186 25.0
2020-Aug-03 09:45 186 0 gusting 2 25.0
2020-Aug-03 09:15 165 25.6
2020-Aug-03 09:00 165 25.0
2020-Aug-03 08:45 165 25.0
2020-Aug-03 08:17 184 25.6
2020-Aug-03 08:02 181 25.6
2020-Aug-03 07:46 167 25.6
2020-Aug-03 07:34 135 25.0
2020-Aug-03 07:17 135 25.0
2020-Aug-03 07:01 135 25.0
2020-Aug-03 06:46 135 25.6
2020-Aug-03 06:31 135 25.6
2020-Aug-03 06:16 135 25.0
2020-Aug-03 06:01 135 25.6
2020-Aug-03 05:46 135 25.6
2020-Aug-03 05:31 135 25.0
2020-Aug-03 05:15 135 25.6
2020-Aug-03 05:00 135 25.6
2020-Aug-03 04:46 135 25.6
2020-Aug-03 04:32 135 25.6
2020-Aug-03 04:16 135 25.6
2020-Aug-03 04:00 135 26.1
2020-Aug-03 03:46 135 26.1
2020-Aug-03 03:30 135 26.1
2020-Aug-03 03:16 133 26.7
2020-Aug-03 02:45 133 26.1
2020-Aug-03 02:31 146 26.7
2020-Aug-03 02:15 146 26.7
2020-Aug-03 02:01 173 26.7
2020-Aug-03 01:46 105 26.7
2020-Aug-03 01:30 105 27.2
2020-Aug-03 01:16 107 26.7
2020-Aug-03 01:00 107 26.7
2020-Aug-03 00:45 107 27.2
2020-Aug-03 00:30 107 27.8
2020-Aug-03 00:16 107 27.8
2020-Aug-03 00:00 108 27.8
2020-Aug-02 23:45 108 27.8
2020-Aug-02 23:30 105 27.8
2020-Aug-02 23:15 106 0 gusting 4 28.3
2020-Aug-02 23:01 117 28.3
2020-Aug-02 22:46 136 28.9
2020-Aug-02 22:30 106 0 gusting 2 28.9
2020-Aug-02 22:15 102 0 gusting 2 28.9
2020-Aug-02 21:45 113 1 gusting 2 28.3
2020-Aug-02 21:31 076 28.3
2020-Aug-02 21:15 065 1 gusting 5 28.3
2020-Aug-02 21:00 082 1 gusting 9 28.9
2020-Aug-02 20:45 084 5 gusting 13 29.4
2020-Aug-02 20:30 065 3 gusting 11 30.6
2020-Aug-02 20:15 049 4 gusting 12 30.0
2020-Aug-02 20:00 094 2 gusting 13 30.0
2020-Aug-02 19:45 088 5 gusting 11 30.6
2020-Aug-02 19:30 076 4 gusting 11 31.1
2020-Aug-02 19:15 128 1 gusting 7 32.2
2020-Aug-02 19:00 125 5 gusting 8 32.2
2020-Aug-02 18:45 143 4 gusting 8 31.7
2020-Aug-02 18:30 153 5 gusting 9 32.2
2020-Aug-02 18:16 157 4 gusting 9 32.2
2020-Aug-02 18:01 155 3 gusting 9 32.8
2020-Aug-02 17:47 134 3 gusting 9 32.8
2020-Aug-02 17:31 109 3 gusting 8 32.8
2020-Aug-02 17:16 127 0 gusting 6 31.7
2020-Aug-02 17:01 087 0 gusting 7 30.0
2020-Aug-02 16:46 126 3 gusting 9 30.6
2020-Aug-02 16:31 111 0 gusting 4 30.0
2020-Aug-02 16:16 076 2 gusting 8 30.0
2020-Aug-02 16:01 080 1 gusting 7 30.6
2020-Aug-02 15:46 101 0 gusting 6 29.4
2020-Aug-02 15:31 067 2 gusting 9 29.4
2020-Aug-02 15:16 040 1 gusting 6 30.0
2020-Aug-02 14:46 074 0 gusting 4 31.1
2020-Aug-02 14:30 123 1 gusting 4 30.6
2020-Aug-02 14:15 061 0 gusting 3 30.6
2020-Aug-02 14:01 109 0 gusting 2 30.0
2020-Aug-02 13:46 151 30.0
2020-Aug-02 13:32 318 29.4
2020-Aug-02 13:15 019 29.4
2020-Aug-02 13:01 005 28.3
2020-Aug-02 12:45 130 28.3
2020-Aug-02 12:30 147 27.8
2020-Aug-02 12:16 150 27.8
2020-Aug-02 12:00 150 27.2
2020-Aug-02 11:45 150 26.1
2020-Aug-02 11:30 149 25.6
2020-Aug-02 11:15 149 25.0
2020-Aug-02 11:00 149 24.4
2020-Aug-02 10:45 153 23.9
2020-Aug-02 10:30 153 23.9
2020-Aug-02 10:15 167 23.9
2020-Aug-02 10:00 180 0 gusting 2 23.9
2020-Aug-02 09:45 152 0 gusting 2 23.9
2020-Aug-02 09:30 164 23.9
2020-Aug-02 09:15 171 23.9
2020-Aug-02 09:00 171 23.9
2020-Aug-02 08:45 169 23.9
2020-Aug-02 08:30 153 0 gusting 2 23.9
2020-Aug-02 08:15 197 23.9
2020-Aug-02 08:00 196 0 gusting 4 23.9
2020-Aug-02 07:45 146 23.9
2020-Aug-02 07:31 144 0 gusting 1 24.4
2020-Aug-02 07:15 147 23.9
2020-Aug-02 06:48 146 0 gusting 2 24.4
2020-Aug-02 06:32 161 0 gusting 1 24.4
2020-Aug-02 06:17 158 24.4
2020-Aug-02 06:01 180 25.0
2020-Aug-02 05:46 179 25.0
2020-Aug-02 05:31 186 25.0
2020-Aug-02 05:16 153 25.0
2020-Aug-02 05:01 153 25.0
2020-Aug-02 04:48 149 25.0
2020-Aug-02 04:30 126 25.6
2020-Aug-02 04:15 126 25.6
2020-Aug-02 04:01 126 25.6
2020-Aug-02 03:46 126 26.1
2020-Aug-02 03:30 126 25.6
2020-Aug-02 03:16 126 25.6
2020-Aug-02 03:01 126 25.6